Location: *
(35.7072°N, 51.4116°E)
Time: 16:55:54
(UTC+00:00)

Daily predictions for brighter satellites

Satellite Brightness Start Highest point End
(mag) Time Altitude Azimuth Time Altitude Azimuth Time Altitude Azimuth
Cosmos 2285 Rocket 4.3 14:11:14 10° N 14:17:25 46° ENE 14:23:30 10° SE
Cosmos 1953 2.3 14:15:36 10° S 14:19:38 73° E 14:23:42 10° N
Cosmos 1503 Rocket 4.3 14:15:58 10° N 14:20:52 43° ENE 14:25:46 10° SE
CORIOLIS 4.2 14:15:59 10° SSE 14:21:19 89° WSW 14:26:42 10° NNW
Cosmos 1242 Rocket 4.2 14:20:31 10° NNE 14:22:55 16° ENE 14:25:17 10° ESE
Cosmos 1758 Rocket 3.6 14:19:09 10° N 14:23:34 60° E 14:27:59 10° SSE
BREEZE M DEB (TANK) 4.2 14:27:04 10° N 14:28:20 12° NE 14:30:01 10° ENE
Cosmos 1844 Rocket 3.1 14:23:36 10° SSW 14:29:14 70° WNW 14:34:53 10° NNE
Meteor 1-16 Rocket 4.3 14:28:58 10° S 14:34:28 57° E 14:39:49 10° NNE
SMAP 4.3 14:30:53 10° S 14:35:21 47° W 14:39:51 10° NNW
YAOGAN 1 3.2 14:34:35 10° SE 14:38:30 35° ENE 14:42:26 10° N
SKYMED 2 3.5 14:34:35 10° NNE 14:38:57 81° ESE 14:43:17 10° S
COBE Rocket 4.2 14:35:59 10° N 14:41:10 80° WNW 14:46:12 10° SSW
YAOGAN 6 2.7 14:42:35 10° SSE 14:46:10 52° ENE 14:49:45 10° N
Cosmos 2278 Rocket 2.7 14:42:32 10° SSE 14:47:39 36° ESE 14:52:46 10° NE
Cosmos 1939 Rocket 4.1 14:44:46 10° ESE 14:47:42 20° ENE 14:50:40 10° NNE
CZ-4C R/B 3.1 14:41:59 10° NNW 14:49:34 87° WSW 14:57:59 10° SSE
Cosmos 1844 4.4 14:46:01 10° SW 14:51:35 58° WNW 14:57:17 10° NNE
Cosmos 1726 Rocket 3.9 14:47:20 10° SSW 14:51:44 70° W 14:56:07 10° N
Cosmos 1908 3.6 14:50:13 10° SSE 14:53:53 41° E 14:57:35 10° NNE
Lacrosse 5 rocket 1.7 14:50:59 10° NNW 14:54:37 40° NE 14:57:08 18° ESE
ATLAS 5 CENTAUR R/B 4.2 14:56:15 10° W 14:58:58 16° NW 15:01:53 10° N
Envisat 3.4 14:56:33 10° S 15:01:35 68° WSW 15:06:39 10° NNW
Cosmos 2228 4.1 14:57:24 10° SSW 15:01:39 49° W 15:05:54 10° N
Okean-O 4.4 14:57:59 10° SSW 15:02:02 35° W 15:06:08 10° NNW
Cosmos 2058 Rocket 3.1 14:59:37 10° S 15:03:59 81° W 15:08:21 10° N
Cosmos 1821 Rocket 4.4 15:01:16 10° NNW 15:07:19 65° W 15:13:23 10° S
Cosmos 1605 Rocket 4.1 15:01:38 10° N 15:07:36 48° E 15:13:27 10° SSE
Cosmos 1328 3.7 15:04:07 10° N 15:08:04 60° E 15:11:56 10° SSE
CZ-4 R/B 1.6 15:04:04 10° S 15:08:10 75° WSW 15:12:22 10° NNW
ADEOS Rocket 4.4 15:03:05 10° NE 15:08:46 23° E 15:14:07 10° SE
Cosmos 1727 Rocket 4.3 15:03:24 10° SSE 15:09:07 41° E 15:14:49 10° NNE
ATLAS 3B R/B 4.5 15:07:22 10° SE 15:07:46 11° SE 15:07:46 11° SE
Cosmos 921 Rocket 4.4 15:08:32 10° SW 15:12:50 43° WNW 15:17:07 10° N
Shenzhou-11 Module 3.8 15:10:54 10° NW 15:12:57 19° N 15:13:36 17° NNE
CSL-04 Rocket 3.7 15:08:14 10° SSE 15:13:47 89° ENE 15:19:20 10° NNW
OAO 3 Rocket 3.2 15:11:32 10° W 15:16:29 82° S 15:18:50 31° E
CZ-3 Stage 3 1.7 15:14:05 10° WSW 15:18:56 34° S 15:19:34 30° SSE
NOAA 11 4.2 15:13:38 10° SSE 15:18:57 56° ENE 15:24:15 10° N
DMSP B5D1-3 4.4 15:15:11 10° NNE 15:20:20 88° ESE 15:25:29 10° SSW
Cosmos 1934 Rocket 4.1 15:14:14 10° N 15:20:35 83° W 15:26:56 10° S
Abrixas rocket 2.8 15:25:47 10° WSW 15:28:45 47° NNW 15:29:13 42° N
OAO 2 Rocket 3.4 15:23:48 10° W 15:29:07 81° S 15:31:06 39° ESE
EO 1 Delta rocket 3.9 15:25:36 10° S 15:30:20 77° W 15:35:00 10° NNW
USA 238 DEB 3.6 15:24:09 10° SSW 15:30:39 61° ESE 15:36:05 16° NE
USA 238 3.6 15:24:15 10° SSW 15:30:46 60° ESE 15:36:06 17° NE
CZ-2D R/B 3.2 15:31:44 11° S 15:35:23 86° WSW 15:39:15 10° NNW
Cosmos 1833 Rocket 3.3 15:31:29 10° N 15:36:24 34° ENE 15:36:24 34° ENE
Cosmos 1726 4.5 15:38:18 10° SW 15:41:21 25° WNW 15:44:24 10° NNW
USA 234 3.5 15:42:38 39° E 15:43:59 44° SE 15:50:09 10° SSW
Ariane Rocket 2.9 15:39:22 12° SSE 15:44:09 82° ENE 15:49:16 10° N
SL-4 R/B 1.9 15:41:24 10° NW 15:45:03 62° SW 15:45:03 62° SW
Cosmos 839 Rocket 4.2 15:49:18 10° NNW 15:55:40 87° WSW 16:00:10 26° SSE
Cosmos 2082 Rocket 3.3 15:51:02 10° N 15:54:33 29° NNE 15:54:33 29° NNE
NOSS 3-2 (A) 3.1 15:51:40 10° SSW 15:57:15 77° ESE 15:58:54 49° NE
COSMOS 2406 3.4 15:51:36 10° NNW 15:57:21 71° WSW 16:00:50 24° S
Cosmos 1153 Rocket 4.3 15:54:27 10° N 16:00:37 86° E 16:05:12 19° S
MOS 1 4.1 16:03:25 64° SE 16:04:17 80° ENE 16:09:58 10° N
IRS-1A Rocket 4.3 16:01:22 23° S 16:04:54 76° WSW 16:10:25 10° NNW
Cosmos 1812 Rocket 4.1 16:01:40 10° SSW 16:05:59 58° W 16:10:22 10° N
Lacrosse 5 3.8 16:03:31 10° NNW 16:05:32 17° N 16:05:32 17° N
Cosmos 1777 Rocket 4.2 16:05:45 10° NNW 16:10:55 66° WSW 16:11:51 54° SSW
H-2A R/B 3.8 16:16:45 21° N 16:16:45 21° N 16:18:33 10° N
NOSS 3-2 (C) 4.2 16:13:58 10° SSW 16:17:07 36° SSW 16:17:07 36° SSW
BREEZE-M DEB (TANK) 4.4 16:19:28 10° W 16:27:10 30° NW 16:27:50 29° NNW
Cosmos 2278 Rocket 4.0 16:26:55 10° WSW 16:31:43 28° WNW 16:36:34 10° N
Lacrosse 5 rocket 3.9 16:30:48 10° WNW 16:32:50 17° WSW 16:32:50 17° WSW
ADEOS Rocket 3.8 16:47:07 10° N 16:54:41 64° WNW 17:01:42 10° SSW
ATLAS 3B R/B 4.5 16:53:24 10° SSW 16:55:07 19° SSW 16:55:07 19° SSW
Cosmos 2333 Rocket 3.7 23:42:22 33° ENE 23:42:22 33° ENE 23:45:52 10° NE
